sat.trackr.live / text

‹ back to catalog

SHIJIAN-17 (SJ-17)

NORAD 41838 · 2016-065A

PAYLOAD ACTIVE UNKNOWN

§ Identity

Operator
Country
PRC
Launch date
2016-11-03
Launch site
WSC
Launch vehicle
Mass (kg)
RCS (m²)
19.83

Purposes: comms

External: N2YO · Heavens-Above · Gunter

§ Orbital elements

Epoch: 2026-09-13T23:47:38.592096Z

Period
1,442.06 min
Inclination
5.9729°
Eccentricity
0.0001784
Mean motion
0.99857240 rev/d
Perigee alt
35,895.7 km
Apogee alt
35,910.8 km
Semi-major
42,281.3 km
B*
0.0000e+0
RAAN
71.4902°
Arg perigee
70.2533°
Mean anomaly
313.9111°
Rev number
3,609

§ Raw data

SHIJIAN-17 (SJ-17)1 41838U 16065A   26256.99141889 -.00000278  00000+0  00000+0 0  99982 41838   5.9729  71.4902 0001784  70.2533 313.9111  0.99857240 36092

JSON: /api/v1/satellites/41838 · /tle

For live sub-satellite position, see the globe view (requires WebGL).

§ Visibility from observer

Set your observer location to see the next 7 days of passes ≥ 10°. The values pass through the URL so the page stays shareable.

No JS? Fill the form by hand. The geolocation button needs JavaScript.